[[{"header":{"parameterUnit":"m.s-1","parameterCategory":1,"la1":30.2991,"la2":30.254,"lo1":-89.0895,"lo2":-89.0444,"dy":0.0017,"dx":0.0017,"nx":28,"ny":28,"refTime":"2025-06-19T09:00:00:Z","depth":0,"parameterNumber":2,"parameterNumberName":"U-component_of_WINDS"},"data":[0,0,0,0,0,0,0,0,0,0,0,0,0,0,0,0,0,0,0,0,0,0,0,0,0,0,0,0,0,0,0,0,0,0,0,0,0,0,0,0,0,0,0,0,0,0,0,0,0,0,0,0,0,0,0,0,0,0,4.7421,4.7423,0,4.7583,4.7585,4.7586,4.7522,4.7519,4.7515,4.7511,4.768,4.7687,4.7695,0,0,0,0,0,0,0,0,0,0,0,0,0,4.7057,4.7064,4.7421,4.7423,4.7425,4.7583,4.7585,4.7587,4.7523,4.7518,4.7514,4.751,4.7677,4.7686,4.7696,0,0,0,0,0,0,0,0,0,0,0,0,0,4.7217,4.7067,4.7421,4.7412,4.7413,4.7582,4.7585,4.7588,4.7524,4.7518,4.7513,4.7507,4.7674,4.7686,4.7697,4.7885,0,0,4.7734,4.7739,0,0,0,0,0,0,0,0,4.7208,4.723,4.7411,4.7413,4.7414,4.7527,4.7518,4.7688,4.7526,4.7482,4.7511,4.7505,4.7633,4.7648,4.7691,4.7893,4.79,4.7735,4.7742,4.7748,4.7751,0,0,0,0,0,0,0,4.7197,4.7223,4.7485,4.7414,4.7416,4.74,4.7417,4.755,4.7588,4.7485,4.7481,4.7501,4.7633,4.768,4.7695,4.7903,4.7735,4.7746,4.7753,4.7758,4.8263,4.8269,0,0,0,0,0,0,4.7185,4.7214,4.748,4.749,4.7295,4.7411,4.743,4.7496,4.7586,4.7594,4.7506,4.7497,4.7662,4.7681,4.7701,4.7923,4.7748,4.7759,4.7766,4.8257,4.8264,4.8271,0,0,0,0,0,0,4.7178,4.721,4.7473,4.7351,4.7383,4.7424,4.7499,4.7503,4.7549,4.7601,4.7608,4.7546,4.7658,4.7684,4.7839,4.7928,4.7764,4.7775,4.825,4.8259,4.8268,4.8373,0,0,0,0,0,0,4.7167,4.7207,4.7279,4.7353,4.739,4.7609,4.7505,4.751,4.757,4.756,4.7641,4.7649,4.7656,4.7821,4.7851,4.7942,4.7785,4.8242,4.8254,4.8265,4.8361,4.8384,4.8404,0,0,0,0,0,4.7155,4.7304,4.7283,4.7316,4.7481,4.7615,4.7636,4.7639,4.7577,4.7649,4.7682,4.7647,4.7914,4.7838,4.787,4.7967,4.8236,4.825,4.8264,4.8352,4.838,4.8404,0,0,0,0,0,0,4.7241,4.7313,4.7291,4.7469,4.7536,4.7603,4.7695,4.767,4.7757,4.7745,4.7746,4.7765,4.7924,4.7962,4.7875,4.8151,4.8066,4.8087,4.8121,4.8148,4.8169,4.8156,4.7795,0,0,0,0,0,4.728,4.7382,4.744,4.7591,4.7626,4.7655,4.7713,4.771,4.778,4.7808,4.7853,4.7923,4.8022,4.8088,4.8182,4.8367,4.8382,4.8449,4.847,4.8488,4.8505,4.8602,4.8632,4.8317,4.8317,4.8317,0,0,4.7363,4.7415,4.748,4.761,4.7661,4.7766,4.7679,4.7795,4.7873,4.7826,4.7974,4.801,4.8087,4.8257,4.8334,4.8293,4.8596,4.8505,4.8519,4.8527,4.862,4.8649,4.8676,4.8327,4.8325,4.8323,0,0,4.7567,4.7618,4.7747,4.78,4.7879,4.7896,4.7927,4.7999,4.802,4.8168,4.8134,4.8227,4.84,4.8455,4.8506,4.8728,4.8697,4.8759,4.8871,4.8965,4.899,4.9012,4.9088,4.9116,4.8777,4.8778,4.8778,0,4.766,4.7817,4.7817,4.7935,4.7992,4.7953,4.8083,4.8135,4.8241,4.8281,4.8233,4.8445,4.8496,4.8676,4.873,4.8774,4.8808,4.8749,4.8986,4.9008,4.9029,4.9101,4.913,4.8784,4.8784,4.8783,4.8782,0,4.7926,4.8035,4.813,4.8231,4.8299,4.8423,4.8441,4.851,4.8501,4.8523,4.8673,4.8732,4.8836,4.8879,4.8872,4.9058,4.9029,4.8984,4.8898,4.9065,4.9133,4.9162,4.8794,4.8792,4.879,4.8788,0,0,4.8189,4.8286,4.8321,4.8365,4.8448,4.8532,4.8653,4.8754,4.8811,4.8886,4.8986,4.9131,4.9088,4.9146,4.9145,4.9229,4.9397,4.9173,4.9174,4.921,4.9602,4.9633,4.9666,4.9378,4.9383,4.9387,4.9594,0,4.8397,4.8608,4.861,4.8804,4.8903,4.8867,4.8972,4.9034,4.9058,4.9146,4.9173,4.9274,4.9212,4.9246,4.9327,4.9359,4.9475,4.9345,4.9469,4.9474,4.9448,4.9702,4.9736,4.9929,4.9621,4.9626,4.9629,0,4.8668,4.8748,4.8951,4.9016,4.9058,4.9152,4.9243,4.9328,4.9396,4.9408,4.9471,4.9457,4.9579,4.949,4.9658,4.9569,4.962,4.9643,4.9651,4.9661,4.956,4.9716,4.999,5.0018,4.9672,4.9668,4.9665,0,4.8835,4.8994,4.9135,4.9175,4.9255,4.9322,4.9359,4.9422,4.9481,4.956,4.9598,4.9692,4.9743,4.9815,4.9826,4.9761,4.9993,4.9906,5.0005,5.0004,5.0054,5.005,5.0338,5.0092,5.0091,5.0091,5.009,0,4.9065,4.919,4.9211,4.9298,4.9436,4.9438,4.9575,4.9606,4.9662,4.9754,4.9729,4.9816,4.9826,4.9915,4.9925,5.006,5.0084,5.0096,5.0096,5.0097,5.0095,5.0129,5.0114,5.0098,5.0097,5.0095,5.0094,0,4.9275,4.9294,4.9445,4.9508,4.9527,4.9626,4.968,4.9762,4.9783,4.9899,4.9926,4.9959,5.0063,5.0081,5.0204,5.021,5.037,5.0359,5.0347,5.0344,5.0441,5.043,5.0758,5.08,5.0529,5.0532,5.0534,0,4.942,4.9514,4.9587,4.9645,4.9685,4.9781,4.984,4.9845,4.9908,4.9992,5.0064,5.0164,5.0244,5.0411,5.0446,5.0539,5.0528,5.0636,5.0542,5.0538,5.0526,5.0519,5.0527,5.0654,5.0657,5.0659,5.0661,0,4.9673,4.9677,4.9763,4.9852,4.9923,4.9994,5.006,5.011,5.0124,5.0196,5.03,5.0362,5.0486,5.0585,5.0677,5.0714,5.069,5.0691,5.0718,5.0718,5.0705,5.071,5.0393,5.0683,5.0681,5.0679,5.0678,5.0677,4.9852,4.9933,4.9996,5.0092,5.0142,5.0204,5.0283,5.0313,5.04,5.05,5.0498,5.0612,5.0676,5.0797,5.084,5.0929,5.0894,5.0935,5.0944,5.0953,5.0961,5.0693,5.0946,5.0946,5.0945,5.0945,5.0944,0,5.0101,5.0139,5.0227,5.032,5.0395,5.0365,5.0436,5.0501,5.0601,5.0662,5.0741,5.086,5.0955,5.0997,5.1091,5.1154,5.1144,5.1178,5.1172,5.118,5.0988,5.0954,5.1183,5.1183,5.1183,5.1183,5.1183,5.1183,5.0239,5.0373,5.0385,5.0543,5.0581,5.069,5.0734,5.079,5.0839,5.0972,5.105,5.1077,5.113,5.1227,5.1313,5.1322,5.1357,5.1395,5.1399,5.1219,5.1194,5.1171,5.1138,5.1403,5.1403,5.1583,5.1585,5.1586]},{"header":{"parameterUnit":"m.s-1","parameterCategory":1,"la1":30.2991,"la2":30.254,"lo1":-89.0895,"lo2":-89.0444,"dy":0.0017,"dx":0.0017,"nx":28,"ny":28,"refTime":"2025-06-19T09:00:00:Z","depth":0,"parameterNumber":3,"parameterNumberName":"V-component_of_WINDS"},"data":[0,0,0,0,0,0,0,0,0,0,0,0,0,0,0,0,0,0,0,0,0,0,0,0,0,0,0,0,0,0,0,0,0,0,0,0,0,0,0,0,0,0,0,0,0,0,0,0,0,0,0,0,0,0,0,0,0,0,3.6796,3.6797,0,3.6868,3.6869,3.687,3.6813,3.681,3.6808,3.6806,3.6877,3.6881,3.6885,0,0,0,0,0,0,0,0,0,0,0,0,0,3.6606,3.6609,3.6796,3.6797,3.6798,3.6868,3.6869,3.687,3.6813,3.681,3.6807,3.6805,3.6876,3.6881,3.6886,0,0,0,0,0,0,0,0,0,0,0,0,0,3.6684,3.6611,3.6796,3.6778,3.6777,3.6868,3.6869,3.687,3.6814,3.681,3.6807,3.6803,3.6874,3.688,3.6887,3.6998,0,0,3.6906,3.6908,0,0,0,0,0,0,0,0,3.668,3.6691,3.678,3.6779,3.6778,3.6828,3.6828,3.6913,3.6815,3.68,3.6806,3.6801,3.6864,3.687,3.6892,3.7001,3.7004,3.6906,3.691,3.6913,3.6914,0,0,0,0,0,0,0,3.6674,3.6688,3.6824,3.6781,3.678,3.6765,3.6772,3.6844,3.6851,3.6801,3.6797,3.6806,3.6863,3.6886,3.6893,3.7005,3.6906,3.6912,3.6915,3.6918,3.7207,3.7211,0,0,0,0,0,0,3.6671,3.6684,3.6822,3.6826,3.6719,3.6772,3.678,3.6816,3.685,3.6852,3.6809,3.6803,3.6877,3.6886,3.6895,3.7027,3.6913,3.6918,3.6922,3.7203,3.7208,3.7212,0,0,0,0,0,0,3.6667,3.6684,3.6819,3.6754,3.677,3.6779,3.682,3.6819,3.6842,3.6857,3.6857,3.6832,3.6875,3.6887,3.6972,3.7028,3.6921,3.6927,3.7198,3.7205,3.721,3.7291,0,0,0,0,0,0,3.6662,3.6683,3.6726,3.6755,3.6774,3.6896,3.6823,3.6823,3.6853,3.6846,3.6878,3.688,3.6873,3.6963,3.6979,3.7035,3.6932,3.7193,3.7201,3.7208,3.7283,3.7299,3.7312,0,0,0,0,0,3.6655,3.6746,3.6729,3.6746,3.6828,3.69,3.691,3.69,3.6858,3.6901,3.691,3.6879,3.702,3.6973,3.6989,3.7049,3.719,3.7199,3.7208,3.7277,3.7296,3.7312,0,0,0,0,0,0,3.6723,3.675,3.6731,3.6834,3.6865,3.689,3.6944,3.6921,3.6964,3.6956,3.6941,3.6948,3.7038,3.7052,3.6999,3.7157,3.7098,3.7111,3.7145,3.7163,3.7177,3.7172,3.6937,0,0,0,0,0,3.675,3.6807,3.6827,3.6916,3.6932,3.6936,3.6966,3.6956,3.6987,3.7,3.7015,3.7046,3.7097,3.7131,3.7178,3.7285,3.729,3.7334,3.7348,3.736,3.7371,3.7426,3.7445,3.7241,3.7241,3.7241,0,0,3.6807,3.6828,3.6865,3.693,3.6953,3.701,3.6947,3.7011,3.7053,3.7009,3.7091,3.7103,3.7136,3.7233,3.7276,3.7247,3.7428,3.7371,3.738,3.7385,3.7437,3.7457,3.7474,3.7247,3.7246,3.7245,0,0,3.6939,3.6961,3.7037,3.7061,3.7097,3.7098,3.7116,3.7144,3.7151,3.7233,3.72,3.725,3.7338,3.7363,3.7387,3.7526,3.7499,3.7542,3.7617,3.7672,3.7688,3.7702,3.7751,3.7768,3.7553,3.7553,3.7553,0,3.7004,3.7091,3.7079,3.7145,3.7174,3.7137,3.7213,3.7236,3.7285,3.7305,3.7272,3.7381,3.7401,3.7502,3.7536,3.7557,3.7576,3.7538,3.7687,3.7701,3.7714,3.776,3.7778,3.7558,3.7557,3.7557,3.7556,0,3.7169,3.7229,3.7286,3.7335,3.737,3.7441,3.7438,3.7475,3.7461,3.7465,3.7548,3.757,3.7621,3.7644,3.7631,3.7743,3.7723,3.7689,3.7629,3.7738,3.7781,3.7799,3.7565,3.7563,3.7562,3.7561,0,0,3.7347,3.7387,3.7408,3.7428,3.7464,3.751,3.7578,3.7628,3.7659,3.7694,3.775,3.7825,3.7792,3.782,3.7809,3.7857,3.7964,3.7816,3.7816,3.7842,3.8086,3.8112,3.8132,3.7946,3.7949,3.7952,3.8083,0,3.748,3.76,3.759,3.7703,3.7757,3.7722,3.7781,3.7808,3.7814,3.786,3.7865,3.7918,3.7872,3.7888,3.7934,3.7941,3.8013,3.7932,3.7996,3.7999,3.7989,3.8155,3.8183,3.8306,3.81,3.8103,3.8105,0,3.7651,3.7692,3.781,3.7836,3.7858,3.7912,3.7956,3.8001,3.8031,3.8031,3.8061,3.8042,3.8108,3.8047,3.8138,3.8084,3.8109,3.8117,3.8121,3.8127,3.8058,3.8164,3.8345,3.8363,3.8131,3.8129,3.8127,0,3.7768,3.7852,3.7933,3.7952,3.7985,3.8023,3.8038,3.8064,3.8094,3.8132,3.8151,3.8196,3.8221,3.8256,3.8249,3.8205,3.8341,3.828,3.8342,3.8343,3.8373,3.8371,3.8559,3.839,3.839,3.839,3.8389,0,3.7917,3.7991,3.7986,3.8036,3.8116,3.8104,3.8184,3.8194,3.8217,3.8267,3.8239,3.8286,3.8274,3.8321,3.8315,3.8391,3.8402,3.8403,3.8401,3.8406,3.8406,3.8422,3.8413,3.8395,3.8394,3.8393,3.8392,0,3.8061,3.8061,3.8147,3.8171,3.8178,3.8236,3.8255,3.8302,3.8304,3.8368,3.8382,3.8386,3.8439,3.8435,3.8495,3.8491,3.8584,3.8572,3.8575,3.8572,3.8634,3.8628,3.8839,3.8866,3.868,3.8682,3.8684,0,3.8157,3.8212,3.8241,3.8273,3.8291,3.8343,3.8373,3.8362,3.8395,3.8431,3.8473,3.8524,3.8564,3.865,3.8657,3.8702,3.869,3.8761,3.8697,3.87,3.869,3.8687,3.8692,3.8774,3.8776,3.8778,3.8779,0,3.8325,3.8322,3.8368,3.8413,3.845,3.8485,3.8517,3.8544,3.8536,3.8574,3.8628,3.8659,3.872,3.877,3.8813,3.8826,3.8801,3.8799,3.8816,3.8821,3.882,3.8821,3.8609,3.8794,3.8793,3.8792,3.8791,3.879,3.8447,3.8494,3.8522,3.8573,3.8596,3.8626,3.867,3.8678,3.8723,3.8772,3.8763,3.8823,3.8849,3.8904,3.8922,3.8968,3.8942,3.8967,3.8973,3.8979,3.8986,3.8813,3.8976,3.8975,3.8975,3.8974,3.8974,0,3.8613,3.8629,3.8676,3.8722,3.8761,3.8735,3.8768,3.8803,3.8857,3.8883,3.8923,3.8984,3.9032,3.9043,3.9089,3.9123,3.9113,3.9136,3.9133,3.9136,3.9006,3.8987,3.9143,3.9143,3.9143,3.9143,3.9143,3.9143,3.8704,3.8783,3.8782,3.8871,3.8885,3.8945,3.8966,3.8993,3.9014,3.9084,3.9124,3.9131,3.9151,3.9197,3.924,3.9241,3.9259,3.9286,3.9283,3.9162,3.9145,3.9129,3.9111,3.929,3.9291,3.9409,3.941,3.9411]}]]